Weather History for Rhodes, Greece

Change the Weather History Date:

Saturday, March 23, 2013

  Actual Average Record
Temperature  
Mean Temperature 57 °F -  
Max Temperature 60 °F 67 °F 73 °F (2008)
Min Temperature 54 °F 54 °F 42 °F (1998)
Degree Days  
Heating Degree Days 8    
Growing Degree Days 7 (Base 50)    
Moisture  
Dew Point 45 °F    
Average Humidity 62    
Maximum Humidity 88    
Minimum Humidity 43    
Precipitation  
Precipitation 0.00 in 0.05 in - ()
Sea Level Pressure  
Sea Level Pressure 29.84 in    
Wind  
Wind Speed 12 mph ()    
Max Wind Speed 20 mph    
Max Gust Speed 28 mph    
Visibility 6.2 miles    
Events      
Averages and records for this station are not official NWS values.
T = Trace of Precipitation, MM = Missing Value Source: Averaged Metar Reports

Daily Weather History Graph

Daily Weather History Graph

Search for Another Location

Airport:

Trip Planner

Search our weather history database for the weather conditions in past years. The results will help you decide how hot, cold, wet, or windy it might be!

Date:

Astronomy

Mar. 23, 2013 Rise Set
Actual Time 6:06 AM EET 6:21 PM EET
Civil Twilight 5:41 AM EET 6:47 PM EET
Nautical Twilight 5:11 AM EET 7:17 PM EET
Astronomical Twilight 4:40 AM EET 7:48 PM EET
Moon 2:34 PM EET (3/23) 3:25 AM EET (3/23)
Length of Visible Light 13h 06m
Length of Day
12h 15m
Waxing Gibbous, 83% of the Moon is Illuminated
Mar 23
Waxing Gibbous
Mar 27
Full
Apr 3
Last Quarter
Apr 10
New
Apr 18
First Quarter

Hourly Weather History & Observations

Time (EET) Temp. Dew Point Humidity Pressure Visibility Wind Dir Wind Speed Gust Speed Precip Events Conditions
12:20 AM 59.0 °F 48.2 °F 67% 29.68 in 6.2 mi NW 16.1 mph - N/A   Scattered Clouds
12:50 AM 55.4 °F 51.8 °F 88% 29.68 in 6.2 mi NW 11.5 mph - N/A   Scattered Clouds
1:20 AM 55.4 °F 51.8 °F 88% 29.68 in 6.2 mi WNW 11.5 mph - N/A   Scattered Clouds
1:50 AM 55.4 °F 48.2 °F 77% 29.71 in 6.2 mi WNW 11.5 mph - N/A   Partly Cloudy
2:00 AM 55 °F 48 °F 70% 29.72 in 6 mi WNW 11.5 mph - -   Partly Cloudy
2:20 AM 55.4 °F 48.2 °F 77% 29.71 in 6.2 mi WNW 10.4 mph - N/A   Partly Cloudy
2:50 AM 57.2 °F 46.4 °F 67% 29.71 in 6.2 mi WNW 9.2 mph - N/A   Partly Cloudy
3:20 AM 57.2 °F 46.4 °F 67% 29.71 in 6.2 mi West 12.7 mph - N/A   Partly Cloudy
4:50 AM 55.4 °F 48.2 °F 77% 29.74 in 6.2 mi NW 19.6 mph - N/A   Partly Cloudy
5:20 AM 55.4 °F 48.2 °F 77% 29.74 in 6.2 mi West 11.5 mph - N/A   Partly Cloudy
5:50 AM 57.2 °F 46.4 °F 67% 29.74 in 6.2 mi West 13.8 mph - N/A   Scattered Clouds
6:20 AM 57.2 °F 46.4 °F 67% 29.74 in 6.2 mi West 15.0 mph - N/A   Scattered Clouds
6:50 AM 57.2 °F 46.4 °F 67% 29.77 in 6.2 mi WNW 10.4 mph - N/A   Scattered Clouds
7:20 AM 57.2 °F 46.4 °F 67% 29.77 in 6.2 mi WNW 12.7 mph - N/A   Scattered Clouds
7:50 AM 59.0 °F 46.4 °F 63% 29.80 in 6.2 mi WNW 15.0 mph - N/A   Partly Cloudy
8:00 AM 58 °F 47 °F 57% 29.80 in 6 mi WNW 15.0 mph - -   Scattered Clouds
8:20 AM 59.0 °F 46.4 °F 63% 29.80 in 6.2 mi WNW 15.0 mph - N/A   Partly Cloudy
8:50 AM 59.0 °F 42.8 °F 55% 29.83 in 6.2 mi West 16.1 mph 27.6 mph N/A   Scattered Clouds
9:20 AM 59.0 °F 42.8 °F 55% 29.83 in 6.2 mi West 16.1 mph 27.6 mph N/A   Scattered Clouds
9:50 AM 59.0 °F 48.2 °F 67% 29.83 in 6.2 mi WNW 15.0 mph - N/A   Partly Cloudy
10:20 AM 59.0 °F 48.2 °F 67% 29.83 in 6.2 mi WNW 15.0 mph - N/A   Partly Cloudy
10:50 AM 59.0 °F 42.8 °F 55% 29.83 in 6.2 mi WNW 16.1 mph - N/A   Partly Cloudy
11:20 AM 59.0 °F 42.8 °F 55% 29.83 in 6.2 mi WNW 16.1 mph - N/A   Partly Cloudy
11:50 AM 59.0 °F 48.2 °F 67% 29.86 in 6.2 mi WNW 16.1 mph - N/A   Partly Cloudy
12:20 PM 59.0 °F 48.2 °F 67% 29.86 in 6.2 mi WNW 16.1 mph - N/A   Partly Cloudy
12:50 PM 60.8 °F 42.8 °F 52% 29.86 in 6.2 mi WNW 16.1 mph - N/A   Partly Cloudy
1:20 PM 60.8 °F 42.8 °F 52% 29.86 in 6.2 mi WNW 16.1 mph - N/A   Partly Cloudy
1:50 PM 60.8 °F 42.8 °F 52% 29.86 in 6.2 mi WNW 15.0 mph - N/A   Scattered Clouds
2:00 PM 60 °F 43 °F 43% 29.88 in 6 mi WNW 15.0 mph - -   Partly Cloudy
2:20 PM 60.8 °F 42.8 °F 52% 29.86 in 6.2 mi WNW 12.7 mph - N/A   Scattered Clouds
2:50 PM 59.0 °F 42.8 °F 55% 29.86 in 6.2 mi WNW 15.0 mph - N/A   Partly Cloudy
3:50 PM 59.0 °F 41.0 °F 51% 29.86 in 6.2 mi WNW 15.0 mph - N/A   Partly Cloudy
4:20 PM 59.0 °F 41.0 °F 51% 29.86 in 6.2 mi West 15.0 mph - N/A   Partly Cloudy
4:50 PM 59.0 °F 39.2 °F 48% 29.89 in 6.2 mi West 15.0 mph - N/A   Partly Cloudy
5:20 PM 59.0 °F 39.2 °F 48% 29.89 in 6.2 mi West 16.1 mph - N/A   Partly Cloudy
5:50 PM 57.2 °F 42.8 °F 59% 29.89 in 6.2 mi West 13.8 mph - N/A   Partly Cloudy
6:20 PM 57.2 °F 42.8 °F 59% 29.89 in 6.2 mi WNW 12.7 mph - N/A   Partly Cloudy
6:50 PM 57.2 °F 42.8 °F 59% 29.89 in 6.2 mi WNW 12.7 mph - N/A   Partly Cloudy
7:20 PM 57.2 °F 42.8 °F 59% 29.89 in 6.2 mi WNW 11.5 mph - N/A   Partly Cloudy
7:50 PM 57.2 °F 42.8 °F 59% 29.92 in 6.2 mi WNW 12.7 mph - N/A   Partly Cloudy
8:00 PM 56 °F 43 °F 51% 29.94 in 6 mi WNW 12.7 mph - -   Scattered Clouds
8:20 PM 57.2 °F 42.8 °F 59% 29.92 in 6.2 mi WNW 11.5 mph - N/A   Partly Cloudy
8:50 PM 57.2 °F 42.8 °F 59% 29.95 in 6.2 mi NW 12.7 mph - N/A   Partly Cloudy
9:20 PM 57.2 °F 42.8 °F 59% 29.95 in 6.2 mi NW 11.5 mph - N/A   Partly Cloudy
9:50 PM 55.4 °F 42.8 °F 63% 29.95 in 6.2 mi WNW 12.7 mph - N/A   Partly Cloudy
10:20 PM 55.4 °F 42.8 °F 63% 29.95 in 6.2 mi WNW 12.7 mph - N/A   Partly Cloudy
10:50 PM 55.4 °F 42.8 °F 63% 29.98 in 6.2 mi West 11.5 mph - N/A   Partly Cloudy
11:20 PM 55.4 °F 42.8 °F 63% 29.98 in 6.2 mi West 11.5 mph - N/A   Partly Cloudy
11:50 PM 55.4 °F 44.6 °F 67% 29.98 in 6.2 mi WNW 9.2 mph - N/A   Partly Cloudy